date,time,SUV Intensity [MED/Hr],UV Index,Daily total [MED],Since Last [MED]
01/10/2022,00:00:59,0.000,0.0,0.0,0.0
01/10/2022,00:02:00,-0.001,0.0,0.0,0.0
01/10/2022,00:02:59,0.000,0.0,0.0,0.0
01/10/2022,00:03:59,-0.000,0.0,0.0,0.0
01/10/2022,00:05:00,0.000,0.0,0.0,0.0
01/10/2022,00:05:59,0.000,0.0,0.0,0.0
01/10/2022,00:06:59,-0.000,0.0,0.0,0.0
01/10/2022,00:08:00,0.000,0.0,0.0,0.0
01/10/2022,00:09:00,0.000,0.0,0.0,0.0
01/10/2022,00:09:59,0.000,0.0,0.0,0.0
01/10/2022,00:10:59,0.000,0.0,0.0,0.0
01/10/2022,00:12:00,-0.000,0.0,0.0,0.0
01/10/2022,00:13:00,0.000,0.0,0.0,0.0
01/10/2022,00:13:59,0.001,0.0,0.0,0.0
01/10/2022,00:15:00,-0.001,0.0,0.0,0.0
01/10/2022,00:15:59,-0.001,0.0,0.0,0.0
01/10/2022,00:16:59,0.001,0.0,0.0,0.0
01/10/2022,00:17:59,0.000,0.0,0.0,0.0
01/10/2022,00:19:00,0.000,0.0,0.0,0.0
01/10/2022,00:19:59,0.000,0.0,0.0,0.0
01/10/2022,00:20:59,0.001,0.0,0.0,0.0
01/10/2022,00:22:00,0.000,0.0,0.0,0.0
01/10/2022,00:22:59,-0.001,0.0,0.0,0.0
01/10/2022,00:24:00,0.001,0.0,0.0,0.0
01/10/2022,00:24:59,0.001,0.0,0.0,0.0
01/10/2022,00:25:59,-0.000,0.0,0.0,0.0
01/10/2022,00:26:59,0.000,0.0,0.0,0.0
01/10/2022,00:28:00,-0.001,0.0,0.0,0.0
01/10/2022,00:29:00,0.001,0.0,0.0,0.0
01/10/2022,00:30:00,-0.000,0.0,0.0,0.0
01/10/2022,00:30:59,-0.001,0.0,0.0,0.0
01/10/2022,00:31:59,0.000,0.0,0.0,0.0
01/10/2022,00:32:59,0.000,0.0,0.0,0.0
01/10/2022,00:34:00,0.001,0.0,0.0,0.0
01/10/2022,00:34:59,0.001,0.0,0.0,0.0
01/10/2022,00:35:59,0.000,0.0,0.0,0.0
01/10/2022,00:36:59,0.000,0.0,0.0,0.0
01/10/2022,00:38:00,-0.000,0.0,0.0,0.0
01/10/2022,00:38:59,0.000,0.0,0.0,0.0
01/10/2022,00:39:59,0.000,0.0,0.0,0.0
01/10/2022,00:41:00,0.000,0.0,0.0,0.0
01/10/2022,00:41:59,0.000,0.0,0.0,0.0
01/10/2022,00:42:59,0.001,0.0,0.0,0.0
01/10/2022,00:44:00,0.000,0.0,0.0,0.0
01/10/2022,00:44:59,0.000,0.0,0.0,0.0
01/10/2022,00:45:59,0.000,0.0,0.0,0.0
01/10/2022,00:47:00,-0.001,0.0,0.0,0.0
01/10/2022,00:48:00,0.000,0.0,0.0,0.0
01/10/2022,00:48:59,0.000,0.0,0.0,0.0
01/10/2022,00:49:59,-0.000,0.0,0.0,0.0
01/10/2022,00:51:00,0.000,0.0,0.0,0.0
01/10/2022,00:51:59,0.000,0.0,0.0,0.0
01/10/2022,00:52:59,-0.000,0.0,0.0,0.0
01/10/2022,00:54:00,-0.000,0.0,0.0,0.0
01/10/2022,00:55:00,0.002,0.0,0.0,0.0
01/10/2022,00:55:59,0.000,0.0,0.0,0.0
01/10/2022,00:56:59,0.000,0.0,0.0,0.0
01/10/2022,00:58:00,0.000,0.0,0.0,0.0
01/10/2022,00:58:59,0.000,0.0,0.0,0.0
01/10/2022,00:59:59,0.000,0.0,0.0,0.0
01/10/2022,01:00:59,0.000,0.0,0.0,0.0
01/10/2022,01:02:00,-0.001,0.0,0.0,0.0
01/10/2022,01:03:00,0.000,0.0,0.0,0.0
01/10/2022,01:03:59,0.001,0.0,0.0,0.0
01/10/2022,01:04:59,0.002,0.0,0.0,0.0
01/10/2022,01:06:00,0.001,0.0,0.0,0.0
01/10/2022,01:06:59,0.001,0.0,0.0,0.0
01/10/2022,01:08:00,0.002,0.0,0.0,0.0
01/10/2022,01:08:59,0.001,0.0,0.0,0.0
01/10/2022,01:10:00,-0.000,0.0,0.0,0.0
01/10/2022,01:10:59,0.001,0.0,0.0,0.0
01/10/2022,01:11:59,0.000,0.0,0.0,0.0
01/10/2022,01:13:00,0.000,0.0,0.0,0.0
01/10/2022,01:13:59,0.001,0.0,0.0,0.0
01/10/2022,01:14:59,0.001,0.0,0.0,0.0
01/10/2022,01:16:00,0.001,0.0,0.0,0.0
01/10/2022,01:17:00,0.000,0.0,0.0,0.0
01/10/2022,01:18:00,-0.000,0.0,0.0,0.0
01/10/2022,01:18:59,0.000,0.0,0.0,0.0
01/10/2022,01:19:59,-0.000,0.0,0.0,0.0
01/10/2022,01:21:00,0.000,0.0,0.0,0.0
01/10/2022,01:22:00,0.000,0.0,0.0,0.0
01/10/2022,01:23:00,0.001,0.0,0.0,0.0
01/10/2022,01:24:00,0.000,0.0,0.0,0.0
01/10/2022,01:25:00,0.001,0.0,0.0,0.0
01/10/2022,01:26:00,0.000,0.0,0.0,0.0
01/10/2022,01:26:59,0.000,0.0,0.0,0.0
01/10/2022,01:28:00,0.001,0.0,0.0,0.0
01/10/2022,01:28:59,-0.000,0.0,0.0,0.0
01/10/2022,01:29:59,0.000,0.0,0.0,0.0
01/10/2022,01:31:00,0.001,0.0,0.0,0.0
01/10/2022,01:32:00,0.002,0.0,0.0,0.0
01/10/2022,01:33:00,0.001,0.0,0.0,0.0
01/10/2022,01:33:59,0.000,0.0,0.0,0.0
01/10/2022,01:35:00,0.001,0.0,0.0,0.0
01/10/2022,01:35:59,0.000,0.0,0.0,0.0
01/10/2022,01:36:59,0.000,0.0,0.0,0.0
01/10/2022,01:38:00,-0.000,0.0,0.0,0.0
01/10/2022,01:38:59,0.001,0.0,0.0,0.0
01/10/2022,01:39:59,0.000,0.0,0.0,0.0
01/10/2022,01:40:59,0.000,0.0,0.0,0.0
01/10/2022,01:42:00,-0.001,0.0,0.0,0.0
01/10/2022,01:43:00,0.001,0.0,0.0,0.0
01/10/2022,01:44:00,0.000,0.0,0.0,0.0
01/10/2022,01:45:00,0.000,0.0,0.0,0.0
01/10/2022,01:45:59,0.001,0.0,0.0,0.0
01/10/2022,01:46:59,0.001,0.0,0.0,0.0
01/10/2022,01:48:00,0.001,0.0,0.0,0.0
01/10/2022,01:48:59,0.000,0.0,0.0,0.0
01/10/2022,01:50:00,0.001,0.0,0.0,0.0
01/10/2022,01:50:59,0.001,0.0,0.0,0.0
01/10/2022,01:52:00,0.001,0.0,0.0,0.0
01/10/2022,01:52:59,0.000,0.0,0.0,0.0
01/10/2022,01:53:59,0.000,0.0,0.0,0.0
01/10/2022,01:55:00,-0.000,0.0,0.0,0.0
01/10/2022,01:55:59,0.000,0.0,0.0,0.0
01/10/2022,01:57:00,0.001,0.0,0.0,0.0
01/10/2022,01:57:59,-0.000,0.0,0.0,0.0
01/10/2022,01:59:00,0.001,0.0,0.0,0.0
01/10/2022,02:00:00,0.001,0.0,0.0,0.0
01/10/2022,02:01:00,0.000,0.0,0.0,0.0
01/10/2022,02:01:59,-0.000,0.0,0.0,0.0
01/10/2022,02:02:59,0.001,0.0,0.0,0.0
01/10/2022,02:04:00,-0.000,0.0,0.0,0.0
01/10/2022,02:05:00,0.001,0.0,0.0,0.0
01/10/2022,02:06:00,0.001,0.0,0.0,0.0
01/10/2022,02:07:00,-0.001,0.0,0.0,0.0
01/10/2022,02:08:00,0.000,0.0,0.0,0.0
01/10/2022,02:09:00,0.001,0.0,0.0,0.0
01/10/2022,02:09:59,0.000,0.0,0.0,0.0
01/10/2022,02:11:00,0.000,0.0,0.0,0.0
01/10/2022,02:12:00,0.001,0.0,0.0,0.0
01/10/2022,02:13:00,0.000,0.0,0.0,0.0
01/10/2022,02:13:59,0.000,0.0,0.0,0.0
01/10/2022,02:15:00,0.001,0.0,0.0,0.0
01/10/2022,02:16:00,0.000,0.0,0.0,0.0
01/10/2022,02:16:59,0.001,0.0,0.0,0.0
01/10/2022,02:17:59,-0.000,0.0,0.0,0.0
01/10/2022,02:19:00,0.001,0.0,0.0,0.0
01/10/2022,02:19:59,0.001,0.0,0.0,0.0
01/10/2022,02:21:00,0.000,0.0,0.0,0.0
01/10/2022,02:21:59,-0.001,0.0,0.0,0.0
01/10/2022,02:22:59,0.002,0.0,0.0,0.0
01/10/2022,02:24:00,0.001,0.0,0.0,0.0
01/10/2022,02:24:59,0.001,0.0,0.0,0.0
01/10/2022,02:25:59,0.000,0.0,0.0,0.0
01/10/2022,02:26:59,0.001,0.0,0.0,0.0
01/10/2022,02:28:00,0.000,0.0,0.0,0.0
01/10/2022,02:28:59,0.000,0.0,0.0,0.0
01/10/2022,02:30:00,0.001,0.0,0.0,0.0
01/10/2022,02:30:59,0.000,0.0,0.0,0.0
01/10/2022,02:32:00,0.000,0.0,0.0,0.0
01/10/2022,02:32:59,0.001,0.0,0.0,0.0
01/10/2022,02:33:59,0.001,0.0,0.0,0.0
01/10/2022,02:35:00,-0.000,0.0,0.0,0.0
01/10/2022,02:36:00,0.000,0.0,0.0,0.0
01/10/2022,02:36:59,-0.001,0.0,0.0,0.0
01/10/2022,02:37:59,0.001,0.0,0.0,0.0
01/10/2022,02:39:03,0.001,0.0,0.0,0.0
01/10/2022,02:40:01,0.000,0.0,0.0,0.0
01/10/2022,02:40:59,-0.001,0.0,0.0,0.0
01/10/2022,02:42:00,0.000,0.0,0.0,0.0
01/10/2022,02:43:01,0.001,0.0,0.0,0.0
01/10/2022,02:44:00,0.001,0.0,0.0,0.0
01/10/2022,02:45:00,0.000,0.0,0.0,0.0
01/10/2022,02:46:00,0.001,0.0,0.0,0.0
01/10/2022,02:46:59,-0.000,0.0,0.0,0.0
01/10/2022,02:48:00,0.001,0.0,0.0,0.0
01/10/2022,02:49:00,-0.001,0.0,0.0,0.0
01/10/2022,02:49:59,-0.000,0.0,0.0,0.0
01/10/2022,02:51:00,0.000,0.0,0.0,0.0
01/10/2022,02:51:59,0.000,0.0,0.0,0.0
01/10/2022,02:53:00,0.001,0.0,0.0,0.0
01/10/2022,02:54:00,-0.001,0.0,0.0,0.0
01/10/2022,02:55:00,0.001,0.0,0.0,0.0
01/10/2022,02:56:00,-0.000,0.0,0.0,0.0
01/10/2022,02:57:00,0.001,0.0,0.0,0.0
01/10/2022,02:57:59,0.001,0.0,0.0,0.0
01/10/2022,02:58:59,0.000,0.0,0.0,0.0
01/10/2022,03:00:00,-0.001,0.0,0.0,0.0
01/10/2022,03:01:00,-0.000,0.0,0.0,0.0
01/10/2022,03:02:00,0.000,0.0,0.0,0.0
01/10/2022,03:02:59,0.001,0.0,0.0,0.0
01/10/2022,03:03:59,0.001,0.0,0.0,0.0
01/10/2022,03:05:00,0.001,0.0,0.0,0.0
01/10/2022,03:06:00,0.001,0.0,0.0,0.0
01/10/2022,03:06:59,-0.001,0.0,0.0,0.0
01/10/2022,03:08:00,0.000,0.0,0.0,0.0
01/10/2022,03:08:59,0.000,0.0,0.0,0.0
01/10/2022,03:10:00,0.001,0.0,0.0,0.0
01/10/2022,03:11:00,0.000,0.0,0.0,0.0
01/10/2022,03:12:00,0.002,0.0,0.0,0.0
01/10/2022,03:12:59,-0.000,0.0,0.0,0.0
01/10/2022,03:14:00,0.001,0.0,0.0,0.0
01/10/2022,03:15:00,-0.001,0.0,0.0,0.0
01/10/2022,03:15:59,-0.000,0.0,0.0,0.0
01/10/2022,03:17:00,-0.000,0.0,0.0,0.0
01/10/2022,03:18:00,0.001,0.0,0.0,0.0
01/10/2022,03:19:00,0.001,0.0,0.0,0.0
01/10/2022,03:20:00,0.001,0.0,0.0,0.0
01/10/2022,03:20:59,0.000,0.0,0.0,0.0
01/10/2022,03:22:00,0.000,0.0,0.0,0.0
01/10/2022,03:23:00,0.000,0.0,0.0,0.0
01/10/2022,03:23:59,0.001,0.0,0.0,0.0
01/10/2022,03:25:00,0.001,0.0,0.0,0.0
01/10/2022,03:25:59,0.001,0.0,0.0,0.0
01/10/2022,03:27:00,0.000,0.0,0.0,0.0
01/10/2022,03:27:59,0.001,0.0,0.0,0.0
01/10/2022,03:29:00,0.001,0.0,0.0,0.0
01/10/2022,03:30:00,-0.000,0.0,0.0,0.0
01/10/2022,03:31:00,0.001,0.0,0.0,0.0
01/10/2022,03:32:00,0.001,0.0,0.0,0.0
01/10/2022,03:32:59,0.001,0.0,0.0,0.0
01/10/2022,03:33:59,0.001,0.0,0.0,0.0
01/10/2022,03:35:00,0.001,0.0,0.0,0.0
01/10/2022,03:37:17,0.002,0.0,0.0,0.0
01/10/2022,03:37:59,0.001,0.0,0.0,0.0
01/10/2022,03:38:59,-0.000,0.0,0.0,0.0
01/10/2022,03:40:00,0.001,0.0,0.0,0.0
01/10/2022,03:41:00,0.001,0.0,0.0,0.0
01/10/2022,03:42:00,0.001,0.0,0.0,0.0
01/10/2022,03:43:00,0.000,0.0,0.0,0.0
01/10/2022,03:43:59,0.001,0.0,0.0,0.0
01/10/2022,03:44:59,0.000,0.0,0.0,0.0
01/10/2022,03:46:00,0.001,0.0,0.0,0.0
01/10/2022,03:47:00,0.001,0.0,0.0,0.0
01/10/2022,03:47:59,0.000,0.0,0.0,0.0
01/10/2022,03:48:59,-0.000,0.0,0.0,0.0
01/10/2022,03:50:00,0.001,0.0,0.0,0.0
01/10/2022,03:51:00,0.000,0.0,0.0,0.0
01/10/2022,03:52:00,0.001,0.0,0.0,0.0
01/10/2022,03:53:00,-0.000,0.0,0.0,0.0
01/10/2022,03:53:59,0.000,0.0,0.0,0.0
01/10/2022,03:55:00,0.001,0.0,0.0,0.0
01/10/2022,03:55:59,0.001,0.0,0.0,0.0
01/10/2022,03:57:00,-0.000,0.0,0.0,0.0
01/10/2022,03:58:00,0.002,0.0,0.0,0.0
01/10/2022,03:59:00,0.002,0.0,0.0,0.0
01/10/2022,04:00:00,0.001,0.0,0.0,0.0
01/10/2022,04:00:59,0.001,0.0,0.0,0.0
01/10/2022,04:02:00,-0.000,0.0,0.0,0.0
01/10/2022,04:03:00,0.001,0.0,0.0,0.0
01/10/2022,04:04:00,0.002,0.0,0.0,0.0
01/10/2022,04:05:00,0.001,0.0,0.0,0.0
01/10/2022,04:06:00,0.001,0.0,0.0,0.0
01/10/2022,04:07:00,0.001,0.0,0.0,0.0
01/10/2022,04:08:00,0.000,0.0,0.0,0.0
01/10/2022,04:09:00,0.002,0.0,0.0,0.0
01/10/2022,04:09:59,0.001,0.0,0.0,0.0
01/10/2022,04:11:00,0.000,0.0,0.0,0.0
01/10/2022,04:12:00,0.002,0.0,0.0,0.0
01/10/2022,04:13:00,-0.001,0.0,0.0,0.0
01/10/2022,04:14:00,0.001,0.0,0.0,0.0
01/10/2022,04:14:59,0.000,0.0,0.0,0.0
01/10/2022,04:16:00,0.001,0.0,0.0,0.0
01/10/2022,04:17:00,0.001,0.0,0.0,0.0
01/10/2022,04:18:00,0.000,0.0,0.0,0.0
01/10/2022,04:19:00,0.002,0.0,0.0,0.0
01/10/2022,04:19:59,0.001,0.0,0.0,0.0
01/10/2022,04:21:00,0.000,0.0,0.0,0.0
01/10/2022,04:22:00,0.001,0.0,0.0,0.0
01/10/2022,04:22:59,0.000,0.0,0.0,0.0
01/10/2022,04:23:59,0.001,0.0,0.0,0.0
01/10/2022,04:25:00,0.001,0.0,0.0,0.0
01/10/2022,04:26:00,-0.000,0.0,0.0,0.0
01/10/2022,04:27:00,0.002,0.0,0.0,0.0
01/10/2022,04:28:00,-0.000,0.0,0.0,0.0
01/10/2022,04:29:00,0.000,0.0,0.0,0.0
01/10/2022,04:30:00,0.001,0.0,0.0,0.0
01/10/2022,04:30:59,0.001,0.0,0.0,0.0
01/10/2022,04:32:00,0.000,0.0,0.0,0.0
01/10/2022,04:32:59,0.000,0.0,0.0,0.0
01/10/2022,04:34:00,0.001,0.0,0.0,0.0
01/10/2022,04:35:00,0.001,0.0,0.0,0.0
01/10/2022,04:36:00,-0.000,0.0,0.0,0.0
01/10/2022,04:37:00,0.001,0.0,0.0,0.0
01/10/2022,04:37:59,0.000,0.0,0.0,0.0
01/10/2022,04:39:00,0.001,0.0,0.0,0.0
01/10/2022,04:40:00,0.000,0.0,0.0,0.0
01/10/2022,04:41:00,-0.001,0.0,0.0,0.0
01/10/2022,04:42:00,0.001,0.0,0.0,0.0
01/10/2022,04:43:00,0.001,0.0,0.0,0.0
01/10/2022,04:44:00,0.002,0.0,0.0,0.0
01/10/2022,04:45:00,0.001,0.0,0.0,0.0
01/10/2022,04:45:59,0.001,0.0,0.0,0.0
01/10/2022,04:47:00,0.001,0.0,0.0,0.0
01/10/2022,04:48:00,0.001,0.0,0.0,0.0
01/10/2022,04:48:59,0.000,0.0,0.0,0.0
01/10/2022,04:50:00,0.001,0.0,0.0,0.0
01/10/2022,04:51:00,0.000,0.0,0.0,0.0
01/10/2022,04:52:00,-0.000,0.0,0.0,0.0
01/10/2022,04:53:00,0.000,0.0,0.0,0.0
01/10/2022,04:54:00,0.000,0.0,0.0,0.0
01/10/2022,04:54:59,-0.000,0.0,0.0,0.0
01/10/2022,04:56:00,0.002,0.0,0.0,0.0
01/10/2022,04:57:00,-0.001,0.0,0.0,0.0
01/10/2022,04:58:00,0.001,0.0,0.0,0.0
01/10/2022,04:59:00,0.000,0.0,0.0,0.0
01/10/2022,05:00:00,0.001,0.0,0.0,0.0
01/10/2022,05:01:00,0.001,0.0,0.0,0.0
01/10/2022,05:02:00,0.002,0.0,0.0,0.0
01/10/2022,05:03:00,0.001,0.0,0.0,0.0
01/10/2022,05:04:00,-0.000,0.0,0.0,0.0
01/10/2022,05:05:00,0.001,0.0,0.0,0.0
01/10/2022,05:06:00,0.001,0.0,0.0,0.0
01/10/2022,05:07:00,0.002,0.0,0.0,0.0
01/10/2022,05:07:59,0.001,0.0,0.0,0.0
01/10/2022,05:09:00,0.000,0.0,0.0,0.0
01/10/2022,05:10:00,0.001,0.0,0.0,0.0
01/10/2022,05:11:00,0.001,0.0,0.0,0.0
01/10/2022,05:12:00,0.002,0.0,0.0,0.0
01/10/2022,05:13:00,0.000,0.0,0.0,0.0
01/10/2022,05:14:00,0.000,0.0,0.0,0.0
01/10/2022,05:14:59,0.001,0.0,0.0,0.0
01/10/2022,05:16:00,0.001,0.0,0.0,0.0
01/10/2022,05:17:00,0.001,0.0,0.0,0.0
01/10/2022,05:18:00,0.001,0.0,0.0,0.0
01/10/2022,05:19:00,0.001,0.0,0.0,0.0
01/10/2022,05:20:00,0.000,0.0,0.0,0.0
01/10/2022,05:21:00,0.001,0.0,0.0,0.0
01/10/2022,05:22:00,0.001,0.0,0.0,0.0
01/10/2022,05:23:00,0.001,0.0,0.0,0.0
01/10/2022,05:24:00,0.001,0.0,0.0,0.0
01/10/2022,05:25:00,0.002,0.0,0.0,0.0
01/10/2022,05:26:00,0.001,0.0,0.0,0.0
01/10/2022,05:27:00,0.002,0.0,0.0,0.0
01/10/2022,05:28:00,0.002,0.0,0.0,0.0
01/10/2022,05:29:00,0.001,0.0,0.0,0.0
01/10/2022,05:30:00,0.001,0.0,0.0,0.0
01/10/2022,05:31:00,0.001,0.0,0.0,0.0
01/10/2022,05:32:00,0.001,0.0,0.0,0.0
01/10/2022,05:33:00,0.000,0.0,0.0,0.0
01/10/2022,05:34:00,0.000,0.0,0.0,0.0
01/10/2022,05:34:59,0.001,0.0,0.0,0.0
01/10/2022,05:36:00,0.000,0.0,0.0,0.0
01/10/2022,05:37:00,0.001,0.0,0.0,0.0
01/10/2022,05:38:00,0.002,0.0,0.0,0.0
01/10/2022,05:39:00,0.002,0.0,0.0,0.0
01/10/2022,05:40:00,0.000,0.0,0.0,0.0
01/10/2022,05:41:00,0.001,0.0,0.0,0.0
01/10/2022,05:42:00,0.002,0.0,0.0,0.0
01/10/2022,05:43:00,0.001,0.0,0.0,0.0
01/10/2022,05:44:00,0.002,0.0,0.0,0.0
01/10/2022,05:44:59,0.001,0.0,0.0,0.0
01/10/2022,05:46:01,0.000,0.0,0.0,0.0
01/10/2022,05:47:00,0.001,0.0,0.0,0.0
01/10/2022,05:48:00,0.001,0.0,0.0,0.0
01/10/2022,05:48:59,0.001,0.0,0.0,0.0
01/10/2022,05:50:00,0.001,0.0,0.0,0.0
01/10/2022,05:51:00,0.001,0.0,0.0,0.0
01/10/2022,05:51:59,0.002,0.0,0.0,0.0
01/10/2022,05:52:59,0.000,0.0,0.0,0.0
01/10/2022,05:54:00,0.002,0.0,0.0,0.0
01/10/2022,05:55:00,0.001,0.0,0.0,0.0
01/10/2022,05:56:00,0.001,0.0,0.0,0.0
01/10/2022,05:57:00,0.002,0.0,0.0,0.0
01/10/2022,05:57:59,0.002,0.0,0.0,0.0
01/10/2022,05:59:00,0.002,0.0,0.0,0.0
01/10/2022,06:00:00,0.002,0.0,0.0,0.0
01/10/2022,06:01:01,0.002,0.0,0.0,0.0
01/10/2022,06:02:00,0.002,0.0,0.0,0.0
01/10/2022,06:03:01,0.003,0.0,0.0,0.0
01/10/2022,06:04:00,0.003,0.0,0.0,0.0
01/10/2022,06:05:00,0.003,0.0,0.0,0.0
01/10/2022,06:06:00,0.003,0.0,0.0,0.0
01/10/2022,06:07:00,0.004,0.0,0.0,0.0
01/10/2022,06:08:00,0.004,0.0,0.0,0.0
01/10/2022,06:09:00,0.004,0.0,0.0,0.0
01/10/2022,06:10:00,0.004,0.0,0.0,0.0
01/10/2022,06:11:00,0.004,0.0,0.0,0.0
01/10/2022,06:12:00,0.005,0.0,0.0,0.0
01/10/2022,06:13:00,0.005,0.0,0.0,0.0
01/10/2022,06:14:00,0.006,0.0,0.0,0.0
01/10/2022,06:15:00,0.006,0.0,0.0,0.0
01/10/2022,06:15:59,0.006,0.0,0.0,0.0
01/10/2022,06:17:00,0.006,0.0,0.0,0.0
01/10/2022,06:17:59,0.006,0.0,0.0,0.0
01/10/2022,06:19:00,0.007,0.0,0.0,0.0
01/10/2022,06:20:00,0.007,0.0,0.0,0.0
01/10/2022,06:21:00,0.007,0.0,0.001,0.001
01/10/2022,06:22:00,0.007,0.0,0.001,0.0
01/10/2022,06:23:00,0.009,0.0,0.001,0.0
01/10/2022,06:24:00,0.008,0.0,0.001,0.0
01/10/2022,06:25:00,0.009,0.0,0.001,0.0
01/10/2022,06:26:00,0.009,0.0,0.001,0.0
01/10/2022,06:27:00,0.011,0.0,0.001,0.0
01/10/2022,06:28:00,0.011,0.0,0.002,0.001
01/10/2022,06:29:00,0.011,0.0,0.002,0.0
01/10/2022,06:30:00,0.012,0.0,0.002,0.0
01/10/2022,06:30:59,0.012,0.0,0.002,0.0
01/10/2022,06:32:00,0.013,0.0,0.002,0.0
01/10/2022,06:33:00,0.012,0.0,0.003,0.001
01/10/2022,06:34:00,0.014,0.0,0.003,0.0
01/10/2022,06:35:00,0.015,0.0,0.003,0.0
01/10/2022,06:36:00,0.015,0.0,0.003,0.0
01/10/2022,06:37:00,0.016,0.0,0.004,0.001
01/10/2022,06:38:00,0.016,0.0,0.004,0.0
01/10/2022,06:39:00,0.017,0.0,0.004,0.0
01/10/2022,06:40:00,0.018,0.0,0.004,0.0
01/10/2022,06:41:00,0.019,0.0,0.005,0.001
01/10/2022,06:42:00,0.019,0.0,0.005,0.0
01/10/2022,06:43:00,0.020,0.0,0.005,0.0
01/10/2022,06:44:00,0.022,0.0,0.006,0.001
01/10/2022,06:45:01,0.022,0.0,0.006,0.0
01/10/2022,06:46:00,0.022,0.0,0.006,0.0
01/10/2022,06:47:00,0.023,0.0,0.007,0.001
01/10/2022,06:48:00,0.025,0.0,0.007,0.0
01/10/2022,06:49:00,0.025,0.0,0.008,0.001
01/10/2022,06:50:00,0.027,0.0,0.008,0.0
01/10/2022,06:51:00,0.027,0.0,0.008,0.0
01/10/2022,06:52:00,0.028,0.0,0.009,0.001
01/10/2022,06:53:00,0.030,0.0,0.009,0.0
01/10/2022,06:54:00,0.030,0.0,0.01,0.001
01/10/2022,06:55:00,0.032,0.0,0.01,0.0
01/10/2022,06:56:00,0.032,0.0,0.011,0.001
01/10/2022,06:57:00,0.033,0.0,0.011,0.0
01/10/2022,06:58:00,0.035,0.0,0.012,0.001
01/10/2022,06:59:00,0.035,0.0,0.013,0.001
01/10/2022,07:00:00,0.036,0.0,0.013,0.0
01/10/2022,07:01:00,0.038,0.0,0.014,0.001
01/10/2022,07:02:00,0.040,0.0,0.014,0.0
01/10/2022,07:03:00,0.040,0.0,0.015,0.001
01/10/2022,07:04:00,0.041,0.0,0.016,0.001
01/10/2022,07:05:00,0.043,0.0,0.017,0.001
01/10/2022,07:06:00,0.044,0.0,0.017,0.0
01/10/2022,07:07:00,0.045,0.0,0.018,0.001
01/10/2022,07:08:00,0.047,0.0,0.019,0.001
01/10/2022,07:09:00,0.048,0.0,0.02,0.001
01/10/2022,07:10:00,0.049,0.0,0.02,0.0
01/10/2022,07:11:01,0.051,0.0,0.021,0.001
01/10/2022,07:12:00,0.052,0.0,0.022,0.001
01/10/2022,07:13:01,0.054,0.0,0.023,0.001
01/10/2022,07:14:00,0.056,0.0,0.024,0.001
01/10/2022,07:15:00,0.056,0.0,0.025,0.001
01/10/2022,07:16:00,0.059,0.0,0.026,0.001
01/10/2022,07:17:00,0.060,0.0,0.027,0.001
01/10/2022,07:18:00,0.062,0.0,0.028,0.001
01/10/2022,07:19:00,0.064,0.0,0.029,0.001
01/10/2022,07:20:00,0.065,0.0,0.03,0.001
01/10/2022,07:21:00,0.067,0.0,0.031,0.001
01/10/2022,07:22:00,0.069,0.0,0.032,0.001
01/10/2022,07:23:00,0.071,0.0,0.033,0.001
01/10/2022,07:24:00,0.072,0.0,0.034,0.001
01/10/2022,07:25:01,0.074,0.0,0.036,0.002
01/10/2022,07:26:00,0.075,0.0,0.037,0.001
01/10/2022,07:27:00,0.078,0.0,0.038,0.001
01/10/2022,07:28:00,0.080,0.0,0.04,0.002
01/10/2022,07:29:00,0.082,0.0,0.041,0.001
01/10/2022,07:30:00,0.084,0.0,0.042,0.001
01/10/2022,07:31:00,0.086,0.0,0.044,0.002
01/10/2022,07:32:00,0.089,0.0,0.045,0.001
01/10/2022,07:33:00,0.090,0.0,0.047,0.002
01/10/2022,07:34:01,0.093,0.0,0.048,0.001
01/10/2022,07:35:00,0.094,0.0,0.05,0.002
01/10/2022,07:36:00,0.097,0.0,0.051,0.001
01/10/2022,07:37:00,0.100,0.0,0.053,0.002
01/10/2022,07:38:00,0.101,0.0,0.055,0.002
01/10/2022,07:39:00,0.104,0.0,0.056,0.001
01/10/2022,07:40:01,0.107,0.0,0.058,0.002
01/10/2022,07:41:00,0.108,0.0,0.06,0.002
01/10/2022,07:42:00,0.111,0.0,0.062,0.002
01/10/2022,07:43:00,0.112,0.0,0.064,0.002
01/10/2022,07:44:00,0.115,0.0,0.065,0.001
01/10/2022,07:45:00,0.117,0.0,0.067,0.002
01/10/2022,07:46:00,0.120,0.0,0.069,0.002
01/10/2022,07:47:00,0.122,0.0,0.071,0.002
01/10/2022,07:48:00,0.125,0.0,0.073,0.002
01/10/2022,07:49:00,0.128,0.0,0.076,0.003
01/10/2022,07:50:00,0.130,0.0,0.078,0.002
01/10/2022,07:51:00,0.133,0.0,0.08,0.002
01/10/2022,07:52:00,0.136,0.0,0.082,0.002
01/10/2022,07:53:00,0.138,0.0,0.084,0.002
01/10/2022,07:54:00,0.141,0.0,0.087,0.003
01/10/2022,07:55:00,0.144,0.0,0.089,0.002
01/10/2022,07:56:00,0.147,0.0,0.092,0.003
01/10/2022,07:57:00,0.150,0.0,0.094,0.002
01/10/2022,07:58:00,0.153,0.0,0.096,0.002
01/10/2022,07:59:00,0.155,0.0,0.099,0.003
01/10/2022,08:00:00,0.158,0.0,0.102,0.003
01/10/2022,08:01:00,0.161,0.0,0.104,0.002
01/10/2022,08:02:00,0.164,0.0,0.107,0.003
01/10/2022,08:03:00,0.168,0.0,0.11,0.003
01/10/2022,08:04:01,0.171,0.0,0.113,0.003
01/10/2022,08:05:00,0.174,0.0,0.116,0.003
01/10/2022,08:06:00,0.177,0.0,0.118,0.002
01/10/2022,08:07:00,0.181,0.0,0.121,0.003
01/10/2022,08:08:00,0.184,0.0,0.124,0.003
01/10/2022,08:09:01,0.187,0.0,0.128,0.004
01/10/2022,08:10:00,0.190,0.0,0.131,0.003
01/10/2022,08:11:00,0.194,0.0,0.134,0.003
01/10/2022,08:12:00,0.198,0.0,0.137,0.003
01/10/2022,08:13:00,0.201,0.0,0.14,0.003
01/10/2022,08:14:00,0.204,0.0,0.144,0.004
01/10/2022,08:15:00,0.208,0.0,0.147,0.003
01/10/2022,08:16:00,0.212,0.0,0.151,0.004
01/10/2022,08:17:00,0.216,0.0,0.154,0.003
01/10/2022,08:18:00,0.219,1.0,0.158,0.004
01/10/2022,08:19:00,0.224,1.0,0.162,0.004
01/10/2022,08:20:00,0.228,1.0,0.165,0.003
01/10/2022,08:21:00,0.229,1.0,0.169,0.004
01/10/2022,08:22:00,0.234,1.0,0.173,0.004
01/10/2022,08:23:00,0.237,1.0,0.177,0.004
01/10/2022,08:24:00,0.241,1.0,0.181,0.004
01/10/2022,08:25:01,0.244,1.0,0.185,0.004
01/10/2022,08:26:00,0.249,1.0,0.189,0.004
01/10/2022,08:27:00,0.254,1.0,0.193,0.004
01/10/2022,08:28:00,0.256,1.0,0.198,0.005
01/10/2022,08:29:01,0.261,1.0,0.202,0.004
01/10/2022,08:30:00,0.265,1.0,0.206,0.004
01/10/2022,08:31:00,0.270,1.0,0.211,0.005
01/10/2022,08:32:00,0.273,1.0,0.215,0.004
01/10/2022,08:33:01,0.277,1.0,0.22,0.005
01/10/2022,08:34:00,0.282,1.0,0.225,0.005
01/10/2022,08:35:01,0.286,1.0,0.229,0.004
01/10/2022,08:36:00,0.289,1.0,0.234,0.005
01/10/2022,08:37:00,0.294,1.0,0.239,0.005
01/10/2022,08:38:01,0.299,1.0,0.244,0.005
01/10/2022,08:39:00,0.303,1.0,0.249,0.005
01/10/2022,08:40:00,0.307,1.0,0.254,0.005
01/10/2022,08:41:00,0.312,1.0,0.259,0.005
01/10/2022,08:42:00,0.315,1.0,0.264,0.005
01/10/2022,08:43:00,0.320,1.0,0.27,0.006
01/10/2022,08:44:00,0.324,1.0,0.275,0.005
01/10/2022,08:45:02,0.330,1.0,0.281,0.006
01/10/2022,08:46:00,0.334,1.0,0.286,0.005
01/10/2022,08:47:01,0.339,1.0,0.292,0.006
01/10/2022,08:48:00,0.344,1.0,0.297,0.005
01/10/2022,08:49:00,0.348,1.0,0.303,0.006
01/10/2022,08:50:00,0.352,1.0,0.309,0.006
01/10/2022,08:51:00,0.357,1.0,0.315,0.006
01/10/2022,08:52:00,0.361,1.0,0.321,0.006
01/10/2022,08:53:00,0.366,1.0,0.327,0.006
01/10/2022,08:54:01,0.370,1.0,0.333,0.006
01/10/2022,08:55:00,0.375,1.0,0.339,0.006
01/10/2022,08:56:00,0.380,1.0,0.346,0.007
01/10/2022,08:57:01,0.385,1.0,0.352,0.006
01/10/2022,08:58:00,0.389,1.0,0.358,0.006
01/10/2022,08:59:00,0.395,1.0,0.365,0.007
01/10/2022,09:00:01,0.401,1.0,0.372,0.007
01/10/2022,09:01:00,0.404,1.0,0.378,0.006
01/10/2022,09:02:00,0.409,1.0,0.385,0.007
01/10/2022,09:03:01,0.414,1.0,0.392,0.007
01/10/2022,09:04:00,0.419,1.0,0.399,0.007
01/10/2022,09:05:00,0.424,1.0,0.406,0.007
01/10/2022,09:06:01,0.429,1.0,0.413,0.007
01/10/2022,09:07:00,0.435,1.0,0.42,0.007
01/10/2022,09:08:00,0.440,1.0,0.427,0.007
01/10/2022,09:09:01,0.447,1.0,0.435,0.008
01/10/2022,09:10:00,0.453,1.0,0.442,0.007
01/10/2022,09:11:00,0.458,1.0,0.45,0.008
01/10/2022,09:12:00,0.462,1.0,0.458,0.008
01/10/2022,09:13:01,0.468,1.0,0.465,0.007
01/10/2022,09:14:00,0.471,1.0,0.473,0.008
01/10/2022,09:15:00,0.475,1.0,0.481,0.008
01/10/2022,09:16:01,0.482,1.0,0.489,0.008
01/10/2022,09:17:01,0.486,1.0,0.497,0.008
01/10/2022,09:18:00,0.491,1.0,0.505,0.008
01/10/2022,09:19:00,0.495,1.0,0.513,0.008
01/10/2022,09:20:00,0.498,1.0,0.522,0.009
01/10/2022,09:21:00,0.503,1.0,0.53,0.008
01/10/2022,09:22:00,0.508,1.0,0.539,0.009
01/10/2022,09:23:00,0.514,1.0,0.547,0.008
01/10/2022,09:24:01,0.519,1.0,0.556,0.009
01/10/2022,09:25:00,0.522,1.0,0.564,0.008
01/10/2022,09:26:00,0.528,1.0,0.573,0.009
01/10/2022,09:27:01,0.533,1.0,0.582,0.009
01/10/2022,09:28:00,0.539,1.0,0.591,0.009
01/10/2022,09:29:01,0.544,1.0,0.6,0.009
01/10/2022,09:30:00,0.547,1.0,0.609,0.009
01/10/2022,09:31:00,0.552,1.0,0.618,0.009
01/10/2022,09:32:01,0.558,1.0,0.627,0.009
01/10/2022,09:33:00,0.563,1.0,0.637,0.01
01/10/2022,09:34:00,0.568,1.0,0.646,0.009
01/10/2022,09:35:01,0.574,1.0,0.656,0.01
01/10/2022,09:36:00,0.579,1.0,0.665,0.009
01/10/2022,09:37:00,0.581,1.0,0.675,0.01
01/10/2022,09:38:01,0.587,1.0,0.685,0.01
01/10/2022,09:39:00,0.593,1.0,0.695,0.01
01/10/2022,09:40:00,0.599,1.0,0.704,0.009
01/10/2022,09:41:01,0.602,1.0,0.714,0.01
01/10/2022,09:42:00,0.609,1.0,0.725,0.011
01/10/2022,09:43:00,0.613,1.0,0.735,0.01
01/10/2022,09:44:00,0.619,1.0,0.745,0.01
01/10/2022,09:45:00,0.623,1.0,0.755,0.01
01/10/2022,09:46:00,0.625,1.0,0.766,0.011
01/10/2022,09:47:00,0.632,1.0,0.776,0.01
01/10/2022,09:48:00,0.637,1.0,0.787,0.011
01/10/2022,09:49:00,0.643,1.0,0.798,0.011
01/10/2022,09:50:00,0.649,1.0,0.808,0.01
01/10/2022,09:51:00,0.654,2.0,0.819,0.011
01/10/2022,09:52:01,0.658,2.0,0.83,0.011
01/10/2022,09:53:00,0.661,2.0,0.841,0.011
01/10/2022,09:54:01,0.666,2.0,0.852,0.011
01/10/2022,09:55:00,0.674,2.0,0.863,0.011
01/10/2022,09:56:00,0.677,2.0,0.875,0.012
01/10/2022,09:57:01,0.681,2.0,0.886,0.011
01/10/2022,09:58:00,0.687,2.0,0.897,0.011
01/10/2022,09:59:00,0.692,2.0,0.909,0.012
01/10/2022,10:00:00,0.698,2.0,0.92,0.011
01/10/2022,10:01:00,0.703,2.0,0.932,0.012
01/10/2022,10:02:01,0.706,2.0,0.944,0.012
01/10/2022,10:03:00,0.710,2.0,0.956,0.012
01/10/2022,10:04:01,0.715,2.0,0.968,0.012
01/10/2022,10:05:01,0.716,2.0,0.979,0.011
01/10/2022,10:06:01,0.725,2.0,0.992,0.013
01/10/2022,10:07:00,0.730,2.0,1.004,0.012